TIANWANG 1B (TW-1B)
1 40927U 15051C   19146.49412123  .00007470  00000-0  11803-3 0  9995
2 40927  97.1399 192.1159 0010361 106.0825   2.2297 15.53713776206413
TIANWANG 1A (TW-1A)
1 40928U 15051D   19146.57775084  .00002125  00000-0  54065-4 0  9993
2 40928  97.1468 178.3940 0011868 149.5398   1.4983 15.40637322205617
LAPAN A2
1 40931U 15052B   19145.77648163 -.00000336  00000-0 -13676-3 0  9992
2 40931   5.9861 227.3613 0019124 183.9122 176.0591 14.76598172197720
LQSAT
1 40958U 15057A   19145.78969086  .00000139  00000-0  29183-4 0  9997
2 40958  97.8986 215.6292 0017277 321.7606  38.2361 14.73079258195285
CHUBUSAT 2
1 41338U 16012B   19145.80449929  .00000239  00000-0  11844-4 0  9990
2 41338  31.0035 296.5754 0013897 227.1538 132.7929 15.00143892179325
CHUBUSAT 3
1 41339U 16012C   19146.44208942  .00000284  00000-0  15240-4 0  9994
2 41339  31.0105 290.6453 0013566 240.9991 118.9312 15.00320737179411
OUFTI-1
1 41458U 16025C   19146.19808601  .00001260  00000-0  67572-4 0  9990
2 41458  98.1008 231.8489 0168047  76.2647 285.7220 15.05751688169045
E-STAR-2
1 41459U 16025D   19146.27543614  .00000718  00000-0  40610-4 0  9991
2 41459  98.1006 231.6087 0169572  77.3263 284.6857 15.05399215169022
AAUSAT 4
1 41460U 16025E   19146.47928686  .00001318  00000-0  69607-4 0  9995
2 41460  98.0938 233.0011 0159238  69.4389 292.3832 15.07259357169178
NUSAT 1
1 41557U 16033B   19146.52165785  .00000847  00000-0  34517-4 0  9998
2 41557  97.4173 234.1572 0014454  26.6628 333.5351 15.27156126166559
BEESAT 4
1 41619U 16040W   19146.12652225  .00000890  00000-0  40695-4 0  9993
2 41619  97.3689 208.7876 0013133 104.9394 255.3298 15.23061426150273
PRATHAM
1 41783U 16059A   19145.73002935 +.00000009 +00000-0 +11031-4 0  9992
2 41783 098.0690 205.8385 0035014 099.2645 261.2520 14.62991669142048
ALSAT 1N
1 41789U 16059G   19146.21746214  .00000065  00000-0  21377-4 0  9993
2 41789  98.0707 208.2572 0029685  87.4916 272.9695 14.64239971142219
NAYIF 1
1 42017U 17008BX  19146.14891963  .00000894  00000-0  38199-4 0  9997
2 42017  97.4042 213.4843 0004655 244.8812 115.1943 15.25457651126336
MAX VALIER SAT
1 42778U 17036P   19145.72870174 +.00000538 +00000-0 +26562-4 0  9992
2 42778 097.3561 203.9207 0010984 314.3823 045.6513 15.21969391106591
